Weather History for KHTS - December, 2014

Change the Weather History Date:

Wednesday, December 10, 2014

  Actual Average Record
Temperature  
Mean Temperature 35 °F 38 °F  
Max Temperature 38 °F 47 °F 76 °F (1971)
Min Temperature 31 °F 30 °F 0 °F (1917)
Degree Days  
Heating Degree Days 30 27  
Month to date heating degree days 247 255  
Since 1 July heating degree days 1326 1142  
Cooling Degree Days 0 0  
Month to date cooling degree days 0 0  
Year to date cooling degree days 971 1134  
Moisture  
Dew Point 29 °F    
Average Humidity 78    
Maximum Humidity 85    
Minimum Humidity 70    
Precipitation  
Precipitation T in 0.11 in 1.26 in (1952)
Month to date precipitation 2.54 1.11  
Year to date precipitation 47.74 40.39  
Snow  
Snow 0.00 in - - ()
Month to date snowfall 0.0  
Since 1 September snowfall T  
Snow Depth 0.00 in    
Sea Level Pressure  
Sea Level Pressure 30.17 in    
Wind  
Wind Speed 9 mph (NW)    
Max Wind Speed 15 mph    
Max Gust Speed 20 mph    
Visibility 10 miles    
Events Rain    
T = Trace of Precipitation, MM = Missing Value Source: NWS Daily Summary

Daily Weather History Graph

Daily Weather History Graph

Search for Another Location

Airport or City:

Trip Planner

Search our weather history database for the weather conditions in past years. The results will help you decide how hot, cold, wet, or windy it might be!

Date:

Astronomy

Dec. 10, 2014 Rise Set
Actual Time 7:36 AM EST 5:09 PM EST
Civil Twilight 7:06 AM EST 5:39 PM EST
Nautical Twilight 6:33 AM EST 6:12 PM EST
Astronomical Twilight 6:01 AM EST 6:44 PM EST
Moon 9:21 PM EST (12/10) 10:27 AM EST (12/10)
Length of Visible Light 10h 32m
Length of Day
9h 33m
Waning Gibbous, 83% of the Moon is Illuminated
Dec 10
Waning Gibbous
Dec 14
Last Quarter
Dec 21
New
Dec 28
First Quarter
Jan 4
Full

Hourly Weather History & Observations

Time (EST) Temp. Windchill Dew Point Humidity Pressure Visibility Wind Dir Wind Speed Gust Speed Precip Events Conditions
12:40 AM 37.0 °F 30.4 °F 36.0 °F 96% 30.15 in 8.0 mi NW 9.2 mph - 0.00 in   Overcast
12:51 AM 37.0 °F 31.0 °F 35.1 °F 93% 30.16 in 9.0 mi NW 8.1 mph - 0.00 in Rain Light Rain
12:59 AM 37.0 °F 31.6 °F 35.1 °F 93% 30.15 in 9.0 mi NW 6.9 mph - 0.00 in Rain Light Rain
1:51 AM 37.0 °F 31.6 °F 35.1 °F 93% 30.17 in 8.0 mi NW 6.9 mph - 0.00 in   Overcast
2:51 AM 37.0 °F 29.3 °F 34.0 °F 89% 30.17 in 9.0 mi NNW 11.5 mph - 0.00 in   Overcast
3:39 AM 37.0 °F 30.4 °F 34.0 °F 89% 30.15 in 10.0 mi NNW 9.2 mph - N/A   Overcast
3:51 AM 37.0 °F 30.4 °F 33.1 °F 86% 30.17 in 10.0 mi NW 9.2 mph - N/A   Overcast
4:10 AM 37.0 °F 31.0 °F 33.1 °F 86% 30.15 in 10.0 mi NNW 8.1 mph - N/A   Overcast
4:41 AM 37.0 °F 30.4 °F 33.1 °F 86% 30.15 in 10.0 mi NNW 9.2 mph - N/A   Overcast
4:51 AM 37.0 °F 30.4 °F 33.1 °F 86% 30.16 in 9.0 mi NNW 9.2 mph - N/A   Overcast
5:51 AM 37.0 °F 28.9 °F 32.0 °F 82% 30.17 in 10.0 mi NNW 12.7 mph 18.4 mph N/A   Overcast
6:03 AM 37.0 °F 29.8 °F 30.9 °F 79% 30.15 in 10.0 mi NW 10.4 mph 20.7 mph N/A   Overcast
6:29 AM 37.0 °F 28.5 °F 30.0 °F 76% 30.16 in 10.0 mi NNW 13.8 mph 18.4 mph N/A   Overcast
6:51 AM 36.0 °F 29.0 °F 28.0 °F 73% 30.18 in 10.0 mi North 9.2 mph 19.6 mph N/A   Overcast
7:51 AM 36.0 °F 28.5 °F 27.0 °F 70% 30.18 in 10.0 mi NNW 10.4 mph 18.4 mph N/A   Overcast
8:21 AM 35.1 °F 30.1 °F 28.0 °F 76% 30.17 in 10.0 mi NW 5.8 mph - N/A   Overcast
8:51 AM 35.1 °F 28.6 °F 28.0 °F 76% 30.19 in 10.0 mi NW 8.1 mph - N/A   Overcast
9:29 AM 36.0 °F 30.3 °F 28.0 °F 73% 30.19 in 10.0 mi NW 6.9 mph - N/A   Overcast
9:51 AM 36.0 °F 29.0 °F 28.0 °F 73% 30.21 in 10.0 mi NW 9.2 mph 18.4 mph N/A   Overcast
10:51 AM 36.0 °F 28.0 °F 28.9 °F 76% 30.21 in 10.0 mi NNW 11.5 mph - N/A   Overcast
11:51 AM 35.1 °F 27.4 °F 28.9 °F 78% 30.21 in 10.0 mi NNW 10.4 mph 17.3 mph 0.00 in   Overcast
12:51 PM 35.1 °F 27.9 °F 28.9 °F 78% 30.19 in 10.0 mi NW 9.2 mph - N/A   Overcast
1:51 PM 34.0 °F 27.2 °F 28.0 °F 79% 30.17 in 10.0 mi NW 8.1 mph - N/A   Overcast
2:51 PM 34.0 °F 26.6 °F 28.0 °F 79% 30.17 in 10.0 mi NW 9.2 mph 17.3 mph N/A   Overcast
3:51 PM 35.1 °F 29.3 °F 28.0 °F 76% 30.17 in 10.0 mi NW 6.9 mph - N/A   Overcast
4:51 PM 34.0 °F 28.8 °F 27.0 °F 75% 30.17 in 10.0 mi NW 5.8 mph - N/A   Overcast
5:51 PM 33.1 °F 27.7 °F 26.1 °F 75% 30.17 in 10.0 mi NW 5.8 mph - N/A   Overcast
6:51 PM 33.1 °F 25.5 °F 26.1 °F 75% 30.17 in 10.0 mi NW 9.2 mph - N/A   Overcast
7:51 PM 33.1 °F 27.7 °F 26.1 °F 75% 30.17 in 10.0 mi NW 5.8 mph - N/A   Overcast
8:48 PM 32.0 °F 24.8 °F 26.6 °F 80% 30.15 in 10.0 mi North 8.1 mph - N/A   Overcast
8:51 PM 32.0 °F 24.2 °F 25.0 °F 75% 30.17 in 10.0 mi NNW 9.2 mph - N/A   Overcast
9:51 PM 30.9 °F 22.2 °F 23.0 °F 72% 30.17 in 10.0 mi NNW 10.4 mph - N/A   Overcast
10:51 PM 30.9 °F 24.3 °F 23.0 °F 72% 30.17 in 10.0 mi North 6.9 mph - N/A   Overcast
11:51 PM 30.9 °F 24.3 °F 23.0 °F 72% 30.17 in 10.0 mi NNW 6.9 mph - N/A   Overcast